Regional Weather Roundup
Issued by NWS Wakefield, VA

Home | Current Version | Previous Version | Text Only | Print | Product List | Glossary On
Versions: 1 2 3 4 5 6 7 8 9 10 11 12 13 14 15 16 17 18 19 20 21 22 23 24 25 26 27 28 29 30 31 32 33 34 35 36 37 38 39 40 41 42 43 44 45 46 47 48 49 50
000
ASUS41 KAKQ 300315
RWRAKQ

REGIONAL WEATHER ROUNDUP
NATIONAL WEATHER SERVICE WAKEFIELD VA
1100 PM EDT FRI MAY 29 2015

Note: "fair" indicates few or no clouds below 12,000 feet with no
significant weather and/or obstructions to visibility. * = Denotes
station may not report precipitation (e.g., rain,snow,etc.),
thunder or fog.

VAZ042-051-052>054-056-300400-
NORTHERN VIRGINIA

CITY           SKY/WX    TMP DP  RH WIND       PRES   REMARKS
WASH NATIONAL  MOCLDY    78  67  68 S12       30.21S
DULLES         MOCLDY    69  67  93 S5        30.20S
FORT BELVOIR   PTCLDY    71  67  87 SE6       30.20F
QUANTICO       PTCLDY    74  67  78 S9        30.21F
FREDERICKSBRG* PTCLDY    71  71 100 CALM      30.20S
STAFFORD*      FOG       66  65  97 CALM      30.25S VSB 1/2
WARRENTON      PTCLDY    68  68  98 SE3       30.20S
CULPEPER*      CLOUDY    68  66  94 CALM      30.21S
MANASSAS*      MOCLDY    70  68  94 CALM      30.20S
LEESBURG*      MOCLDY    72  68  88 S5        30.21S
WINCHESTER     PTCLDY    72  68  88 S3        30.19F
FRONT ROYAL*   FAIR      68  64  88 CALM      30.18F
LURAY*         FAIR      68  68 100 CALM      30.21S FOG
$$

VAZ048-049-060>072-079>083-300400-
CENTRAL AND SOUTH CENTRAL VIRGINIA

CITY           SKY/WX    TMP DP  RH WIND       PRES   REMARKS
RICHMOND       MOCLDY    71  66  84 SE7       30.21R
CHESTERFIELD*  NOT AVBL
PETERSBURG*    MOCLDY    70  68  95 CALM      30.22S
HANOVER        MOCLDY    69  66  90 E3        30.22S
TAPPAHANNOCK*  MOCLDY    71  63  75 CALM      30.23S
QUINTON*       FAIR      70  66  89 E3        30.21S
CHARLOTTSVILLE PTCLDY    70  66  87 CALM      30.20F
GORDONSVILLE*  MOCLDY    67  66  98 CALM      30.20F FOG
ORANGE*        MOCLDY    70  68  94 CALM      30.22F
LOUISA*        PTCLDY    70  66  88 SE3       30.20F
BUMPASS*       FAIR      69  67  92 CALM      30.21R
FARMVILLE*     PTCLDY    73  73 100 CALM      30.19S
CREWE*         CLOUDY    67  65  96 CALM      30.20F VSB 1/2
FORT PICKETT*  FAIR      70  65  85 SE6       30.21S
CHASE CITY*    FAIR      69  69 100 CALM      30.20F
CLARKSVILLE*   FAIR      66  61  82 CALM      30.20S
SOUTH HILL*    PTCLDY    72  64  78 CALM      30.26F
LAWRENCEVILLE* FAIR      72  66  83 CALM      30.21S
EMPORIA*       PTCLDY    70  64  83 SE5       30.23S
$$

VAZ088>098-300400-
SOUTHEAST VIRGINIA

CITY           SKY/WX    TMP DP  RH WIND       PRES   REMARKS
NORFOLK        CLEAR     72  66  81 S7        30.22S
VIRGINIA BEACH PTCLDY    73  67  81 SE6       30.23R
NORFOLK NAVAL  PTCLDY    77  66  68 S5        30.23F
WEST POINT*    PTCLDY    73  66  78 E7        30.24R
SALUDA*        FAIR      70  66  88 SE5       30.23R
NEWPORT NEWS   CLEAR     76  66  71 SE7       30.22S
LANGLEY AFB    CLEAR     72  67  83 S7        30.21F
FORT EUSTIS    CLEAR     73  69  89 SE7       30.20
WILLIAMSBURG*  CLEAR     77  70  78 S10       30.23S
HR EXEC AP*    FAIR      70  64  83 SE5       30.24F
FRANKLIN*      CLEAR     72  67  85 SE6       30.22F
WAKEFIELD      PTCLDY    73  67  81 CALM      30.22R
$$

VAZ020-022-025-037-045-300400-
WEST CENTRAL AND SOUTHWEST VIRGINIA

CITY           SKY/WX    TMP DP  RH WIND       PRES   REMARKS
STAUNTON*      PTCLDY    72  67  85 CALM      30.23F
WAYNESBORO*    FAIR      68  67  97 CALM      30.23F
HOT SPRINGS VA MOCLDY    63  62  97 S8        30.31S
LYNCHBURG      PTCLDY    68  65  90 CALM      30.22S
DANVILLE       PTCLDY    69  66  90 CALM      30.20S
SOUTH BOSTON*  FAIR      66  65  95 CALM      30.20S
MARTINSVILLE   MOCLDY    67  67 100 CALM      30.23F
ROANOKE        PTCLDY    68  66  93 CALM      30.23S
BLACKSBURG     PTCLDY    64  63  96 CALM      30.29R
DUBLIN*        FOG       65  65 100 CALM      30.26S VSB<1/4
MARION*        CLEAR     65  62  89 E3        30.29R
HILLSVILLE*    CLEAR     64  63  97 SE3       30.30S FOG
RICHLANDS*     FAIR      66  63  88 SE3       30.25S
WISE*          MOCLDY    68  59  73 S6        30.25S
ABINGDON*      CLEAR     67  67  99 CALM      30.23S
$$

MDZ021>025-VAZ099-100-300400-
SOUTHERN MARYLAND AND THE DELMARVA PENINSULA

CITY           SKY/WX    TMP DP  RH WIND       PRES   REMARKS
PATUXENT RIVER PTCLDY    72  66  81 S8        30.22S
BAY BRIDGE APT   N/A    N/A N/A N/A SE6       30.22S
LEONARDTOWN    PTCLDY    70  64  83 SE3       30.24S
DOVER          PTCLDY    69  68  96 S8        30.20F
GEORGETOWN     PTCLDY    69  64  84 SW3       30.25S
EASTON         MOCLDY    70  70 100 S6        30.26F
CAMBRIDGE      PTCLDY    72  66  83 SE6       30.22F
SALISBURY      PTCLDY    65  63  93 CALM      30.24S
OCEAN CITY     MOCLDY    66  64  93 CALM      30.25S
WALLOPS ISLAND PTCLDY    67  67 100 S5        30.25S
ACCOMACK*      PTCLDY    68  68 100 SE8       30.24S
$$

NCZ012>017-030>032-300400-
NORTH CENTRAL AND EASTERN NORTH CAROLINA

CITY           SKY/WX    TMP DP  RH WIND       PRES   REMARKS
ROANOKE RAPIDS FAIR      72  64  78 CALM      30.22R
RALEIGH        PTCLDY    72  59  63 SE7       30.21R
ELIZABETH CITY CLEAR     73  70  90 S7        30.23S
AHOSKIE*       CLEAR     70  66  87 S3        30.23S
EDENTON*       CLEAR     73  68  84 SE7       30.23F
CURRITUCK*     CLEAR     71  68  90 CALM      30.24F
KILL DEVIL HLS   N/A     72  68  88 SE5       30.23S
MANTEO         CLEAR     72  69  89 SE5       30.24S
CAPE HATTERAS  PTCLDY    75  66  73 SE9       30.23S
TARBORO*       FAIR      74  67  78 SE3       30.23S
GOLDSBORO      PTCLDY    74  67  79 CALM      30.20R
WASHINGTON     CLEAR     71  67  84 CALM      30.23S
GREENVILLE     CLEAR     73  68  83 SE6       30.23F
NEW BERN       CLEAR     70  66  87 CALM      30.23S
WILMINGTON     CLEAR     75  68  78 E3        30.21R
$$

VAZ048-300400-
ELSEWHERE

CITY           SKY/WX    TMP DP  RH WIND       PRES   REMARKS
HARRISBURG PA  MOCLDY    76  66  71 S6        30.18S
BALTIMORE      MOCLDY    73  62  68 SE6       30.20S
ANNAPOLIS      MOCLDY    73  65  75 S13       30.21S
ANDREWS AFB    PTCLDY    71  65  82 S6        30.21S
PHILADELPHIA   MOCLDY    73  63  70 S5        30.23S
HENDERSON NC   CLEAR     74  56  53 SE6       30.21S
GREENSBORO     PTCLDY    72  67  84 CALM      30.20S
ROCKY MOUNT    CLEAR     75  67  76 S3        30.22R
$$

VAZ100-300400-
MARINE

STATION/POSITION TIME  TEMP    WIND        PRES    WAVE   SWELL
                       AIR SEA DIR/SP/G            HT/PER HT/PER
                 (UTC) (F)     (DEG/KT/KT) (MB)    (FT/S) (FT/S)
BRANDYWINE LGT   0200   67 65  170/ 16/ 18 1024.0R
CAPE MAY NJ      0200   68 69  150/  7/ 10 1023.9R
LEWES DE         0200   70 67  180/  5/  6 1024.0R
15NM E FENWICK I 0250   67 65              1024.2R   3/ 9
OCEAN-CITY-INLET 0200   66 58  160/  4/  6 1024.0R
WACHAPREAGUE VA  0200   70 79  180/  5/  9 1024.0R
THOMAS POINT MD  0300   73 71  180/ 16/ 17 1023.5S
GOOSES REEF MD   0300   73 72  180/ 14/ 16 1024.1S   1/ 3
COVE POINT MD    0200   72     190/ 13/ 15 1024.1R
SOLOMONS ISLAND  0200      75                N/A
BISHOPS HEAD MD  0200   74 79  150/ 15/ 17 1023.4R
PINEY POINT MD   0200          170/ 11/ 12   N/A
CAMBRIDGE MD     0200   73 75  160/  3/  5 1023.4R
LEWISETTA VA     0200   73 77              1023.1R
RAPPAHANNOCK LGT 0200          140/ 11/ 12 1024.4R
STINGRAY PT      0300   72 74  170/ 14/ 16 1023.3S   1/ 3
YORK RVR RNG VA  0200   73     160/ 14/ 16 1022.9R
YORKTOWN VA      0200   73 73  140/  5/  7 1023.1R
JAMESTOWN VA     0300   74 79  140/  8/ 12   N/A
DOMINION TERM VA 0200   74     140/  9/ 11 1023.5R
KIPTOPEKE VA     0200      78  150/ 12/ 13   N/A
CHES BAY BRIDGE  0200   71 64  140/ 10/ 12 1023.3R
CAPE HENRY VA    0200   69     150/ 10/ 13 1022.3R
CHESAPEAKE LGHT  0200   68     140/ 16/ 17 1024.2R
WILLOUBY STN VA  0200   73     150/ 10/ 12 1024.2R
CAPE HENRY BUOY  0228      64                N/A     2/ 9
1ST LANDING BUOY 0300      69              1023.4R
CAPE CHARLES BUO 0226      67                N/A     2/ 8   2/ 8
OFFSHORE WE BUOY 0211      69                N/A     3/ 9   2/ 9
64NM E OF VA BCH 0250   69 67  120/ 10/ 10 1023.6S   3/ 9   3/ 9
DUCK PIER NC     0200   69 59  140/  7/  9 1022.9R
44100 DUCK FRF   0224      72                N/A     3/ 8
44056 DUCK FRF   0211      67                N/A     3/ 9
OREGON INLET NC  0200   73 78  100/  6/  9 1023.8R
HATTERAS NC      0200   76 79  120/  5/  9 1023.2R
DIAMOND SHLS NC  0250   76 80  120/ 12/ 16 1023.6F   3/ 9   3/ 9
CAPE LOOKOUT NC  0300   75     130/  9/ 10 1023.2R
$$



USA.gov is the U.S. government's official web portal to all federal, state and local government web resources and services.